Location: Unspecified
(48.7670°N, 0.0000°E)
Time: 20:26:37
(UTC+00:00)

Altair - Pass Details

Date: 30 June 2019
Orbit: 1501 x 1683 km, 47.2° (Epoch: 15 July)

Event Time Altitude Azimuth Distance (km) Brightness Sun altitude
Rises 17:08:43 0° 218° (SW) 4,643 10.5 26.1°
Reaches altitude 10° 17:11:52 10° 213° (SSW) 3,678 9.9 25.6°
Maximum altitude 17:20:29 45° 144° (SE) 2,025 8.1 24.2°
Drops below altitude 10° 17:29:25 10° 77° (ENE) 3,812 9.1 22.7°
Sets 17:32:44 0° 71° (ENE) 4,826 9.6 22.2°
